Regional Weather Roundup
Issued by NWS

Home | Current Version | Previous Version | Graphics & Text | Print | Product List | Glossary On
Versions: 1 2 3 4 5 6 7 8 9 10 11 12 13 14 15 16 17 18 19 20 21 22 23 24 25 26 27 28 29 30 31 32 33 34 35 36 37 38 39 40 41 42 43 44 45 46 47 48 49 50
000
ASUS43 KOAX 021702
RWRNE

WEATHER ROUNDUP FOR NEBRASKA
NATIONAL WEATHER SERVICE OMAHA NE
1200 PM CDT THU JUL 02 2015

NOTES: SATELLITE DATA IS BEING USED TO AUGMENT CLOUD COVER ABOVE
       12000 FEET.
       "FAIR" INDICATES FEW OR NO CLOUDS BELOW 12,000 FEET WITH NO
       SIGNIFICANT WEATHER AND/OR OBSTRUCTIONS TO VISIBILITY.

  * THESE STATIONS DO NOT REPORT WEATHER SUCH AS RAIN...SNOW OR FOG.

NEZ001>004-019>022-054>056-021800-
NEBRASKA PANHANDLE

CITY           SKY/WX    TMP DP  RH WIND       PRES   REMARKS
SCOTTSBLUFF    SUNNY     77  62  59 NW10      30.13S
ALLIANCE       SUNNY     75  57  53 N21       30.12S
CHADRON        MOSUNNY   77  60  55 VRB7      30.10S
SIDNEY         SUNNY     76  60  57 NW16G22   30.16S
$$

NEZ057>060-069>072-079>082-021800-
SOUTHWEST NEBRASKA

CITY           SKY/WX    TMP DP  RH WIND       PRES   REMARKS
NORTH PLATTE   MOSUNNY   82  59  45 NW13      30.02S
IMPERIAL       MOSUNNY   81  59  47 NW13      30.07S
MCCOOK         MOSUNNY   82  58  43 NW10      30.02R
$$

NEZ005>010-023>029-035>040-094-021800-
NORTH CENTRAL NEBRASKA

CITY           SKY/WX    TMP DP  RH WIND       PRES   REMARKS
VALENTINE      MOSUNNY   74  60  61 VRB7      30.03S
BROKEN BOW     PTSUNNY   77  63  61 N12G22    29.99S
ORD            MOSUNNY   79  62  56 NW13      29.94S
$$

NEZ041-046>049-061>064-073>077-083>087-021800-
SOUTH CENTRAL NEBRASKA

CITY           SKY/WX    TMP DP  RH WIND       PRES   REMARKS
GRAND ISLAND   MOSUNNY   80  64  58 NW6       29.95F
HASTINGS       MOSUNNY   78  68  71 N10       29.96R
KEARNEY *      SUNNY     79  63  57 N13       29.98R
$$

NEZ011>018-030>034-042>045-021800-
NORTHEAST NEBRASKA

CITY           SKY/WX    TMP DP  RH WIND       PRES   REMARKS
NORFOLK        LGT RAIN  64  62  93 E6        29.96S FOG
COLUMBUS *     CLOUDY    64  61  88 SE10      29.94F
TEKAMAH        CLOUDY    67  61  81 E6        29.98R
$$

NEZ050>053-065>068-078-088>093-021800-
SOUTHEAST NEBRASKA

CITY           SKY/WX    TMP DP  RH WIND       PRES   REMARKS
LINCOLN        LGT RAIN  67  65  93 E10       29.95F FOG
OMAHA EPPLEY   RAIN      65  63  93 E3        29.98R FOG
FALLS CITY     LGT RAIN  69  65  86 SE3       29.96R
$$

NEZ044-045-051>053-067-021800-
OMAHA AREA

CITY           SKY/WX    TMP DP  RH WIND       PRES   REMARKS
OMAHA EPPLEY   RAIN      65  63  93 E3        29.98R FOG
OFFUTT AFB     HVY RAIN  66  64  92 NE5       29.96F FOG
$$


USA.gov is the U.S. government's official web portal to all federal, state and local government web resources and services.